StationID,Date,MaxTemp,MinTemp,Precipitation,Snowfall,SnowDepth
"CA001104473","1975-06-01",80.06,48.02,0.00,0.00,
"CA001104473","1975-06-02",64.94,55.94,0.00,0.00,
"CA001104473","1975-06-03",55.94,50.00,71.00,0.00,
"CA001104473","1975-06-04",59.00,50.00,20.00,0.00,
"CA001104473","1975-06-05",62.06,46.04,0.00,0.00,
"CA001104473","1975-06-06",59.00,48.02,0.00,0.00,
"CA001104473","1975-06-07",59.00,44.06,0.00,0.00,
"CA001104473","1975-06-08",57.02,41.00,0.00,0.00,
"CA001104473","1975-06-09",66.02,39.02,0.00,0.00,
"CA001104473","1975-06-10",73.04,48.02,0.00,0.00,
"CA001104473","1975-06-11",66.02,48.02,0.00,0.00,
"CA001104473","1975-06-12",69.98,53.96,0.00,0.00,
"CA001104473","1975-06-13",66.02,55.94,0.00,0.00,
"CA001104473","1975-06-14",59.00,50.00,0.00,0.00,
"CA001104473","1975-06-15",59.00,51.98,0.00,0.00,
"CA001104473","1975-06-16",53.96,48.02,33.00,0.00,
"CA001104473","1975-06-17",62.96,46.04,0.00,0.00,
"CA001104473","1975-06-18",64.04,50.00,0.00,0.00,
"CA001104473","1975-06-19",69.98,46.04,0.00,0.00,
"CA001104473","1975-06-20",62.96,50.00,0.00,0.00,
"CA001104473","1975-06-21",55.04,51.98,0.00,0.00,
"CA001104473","1975-06-22",55.04,48.02,46.00,0.00,
"CA001104473","1975-06-23",64.94,,0.00,0.00,
"CA001104473","1975-06-24",64.04,46.04,0.00,0.00,
"CA001104473","1975-06-25",59.00,46.04,3.00,0.00,
"CA001104473","1975-06-26",62.96,48.02,5.00,0.00,
"CA001104473","1975-06-27",60.98,39.92,41.00,0.00,
"CA001104473","1975-06-28",55.94,44.06,8.00,0.00,
"CA001104473","1975-06-29",64.04,44.06,0.00,0.00,
"CA001104473","1975-06-30",73.04,42.98,0.00,0.00,
"CA001104473","1975-07-01",75.92,50.00,0.00,0.00,
"CA001104473","1975-07-02",73.94,55.94,0.00,0.00,
"CA001104473","1975-07-03",75.92,55.94,0.00,0.00,
"CA001104473","1975-07-04",82.94,57.92,0.00,0.00,
"CA001104473","1975-07-05",84.02,60.08,0.00,0.00,
"CA001104473","1975-07-06",73.04,60.08,0.00,0.00,
"CA001104473","1975-07-07",80.06,57.02,8.00,0.00,
"CA001104473","1975-07-08",71.06,55.04,0.00,0.00,
"CA001104473","1975-07-09",75.02,55.04,3.00,0.00,
"CA001104473","1975-07-10",73.04,55.04,0.00,0.00,
"CA001104473","1975-07-11",69.08,53.96,0.00,0.00,
"CA001104473","1975-07-12",71.06,53.96,0.00,0.00,
"CA001104473","1975-07-13",71.06,51.98,0.00,0.00,
"CA001104473","1975-07-14",78.08,60.08,10.00,0.00,
"CA001104473","1975-07-15",71.06,60.08,0.00,0.00,
"CA001104473","1975-07-16",71.96,60.08,0.00,0.00,
"CA001104473","1975-07-17",73.04,59.00,8.00,0.00,
"CA001104473","1975-07-18",80.06,60.08,0.00,0.00,
"CA001104473","1975-07-19",78.98,60.98,0.00,0.00,
"CA001104473","1975-07-20",,55.94,0.00,0.00,
"CA001104473","1975-07-21",75.92,,0.00,0.00,
"CA001104473","1975-07-22",78.98,51.08,0.00,0.00,
"CA001104473","1975-07-23",84.02,51.98,0.00,0.00,
"CA001104473","1975-07-24",78.98,59.00,0.00,0.00,
"CA001104473","1975-07-25",78.08,59.00,0.00,0.00,
"CA001104473","1975-07-26",82.04,57.92,0.00,0.00,
"CA001104473","1975-07-27",78.98,53.96,28.00,0.00,
"CA001104473","1975-07-28",69.08,60.08,0.00,0.00,
"CA001104473","1975-07-29",69.98,51.98,0.00,0.00,
"CA001104473","1975-07-30",73.04,50.00,0.00,0.00,
"CA001104473","1975-07-31",71.96,51.98,0.00,0.00,
"CA001104473","1975-08-01",75.02,55.04,0.00,0.00,
"CA001104473","1975-08-02",69.98,53.96,0.00,0.00,
"CA001104473","1975-08-03",71.96,60.08,0.00,0.00,
"CA001104473","1975-08-04",78.08,50.00,0.00,0.00,
"CA001104473","1975-08-05",73.94,60.98,0.00,0.00,
"CA001104473","1975-08-06",71.96,50.00,48.00,0.00,
"CA001104473","1975-08-07",60.08,55.94,53.00,0.00,
"CA001104473","1975-08-08",69.98,50.00,0.00,0.00,
"CA001104473","1975-08-09",71.96,50.00,0.00,0.00,
"CA001104473","1975-08-10",73.94,57.92,0.00,0.00,
"CA001104473","1975-08-11",73.04,55.94,0.00,0.00,
"CA001104473","1975-08-12",75.92,50.00,0.00,0.00,
"CA001104473","1975-08-13",82.04,53.96,0.00,0.00,
"CA001104473","1975-08-14",75.92,53.96,0.00,0.00,
"CA001104473","1975-08-15",68.00,55.94,5.00,0.00,
"CA001104473","1975-08-16",62.06,57.92,61.00,0.00,
"CA001104473","1975-08-17",69.98,57.92,0.00,0.00,
"CA001104473","1975-08-18",68.00,55.94,3.00,0.00,
"CA001104473","1975-08-19",77.00,57.02,0.00,0.00,
"CA001104473","1975-08-20",68.00,55.04,0.00,0.00,
"CA001104473","1975-08-21",66.02,60.08,0.00,0.00,
"CA001104473","1975-08-22",60.08,57.92,381.00,0.00,
"CA001104473","1975-08-23",68.00,50.00,0.00,0.00,
"CA001104473","1975-08-24",64.94,53.96,53.00,0.00,
"CA001104473","1975-08-25",68.00,53.96,51.00,0.00,
"CA001104473","1975-08-26",,59.00,81.00,0.00,
"CA001104473","1975-08-27",64.04,,71.00,0.00,
"CA001104473","1975-08-28",60.98,55.04,97.00,0.00,
"CA001104473","1975-08-29",64.94,55.04,3.00,0.00,
"CA001104473","1975-08-30",66.02,51.98,0.00,0.00,
"CA001104473","1975-08-31",66.92,53.06,0.00,0.00,
"CA001104473","1975-09-01",66.02,,0.00,0.00,
"CA001104473","1975-09-02",64.94,51.98,0.00,0.00,
"CA001104473","1975-09-03",66.92,48.02,0.00,0.00,
"CA001104473","1975-09-04",71.96,44.96,0.00,0.00,
"CA001104473","1975-09-05",75.92,46.94,0.00,0.00,
"CA001104473","1975-09-06",78.08,,0.00,0.00,
"CA001104473","1975-09-07",,,0.00,0.00,
"CA001104473","1975-09-08",66.02,48.92,0.00,0.00,
"CA001104473","1975-09-09",66.92,55.04,0.00,0.00,
"CA001104473","1975-09-10",73.04,55.04,0.00,0.00,
"CA001104473","1975-09-11",77.00,55.04,0.00,0.00,
"CA001104473","1975-09-12",77.00,48.02,0.00,0.00,
"CA001104473","1975-09-13",78.08,48.02,0.00,0.00,
"CA001104473","1975-09-14",71.96,50.00,0.00,0.00,
"CA001104473","1975-09-15",66.92,51.08,0.00,0.00,
"CA001104473","1975-09-16",60.08,55.04,0.00,0.00,
"CA001104473","1975-09-17",64.04,48.92,0.00,0.00,
"CA001104473","1975-09-18",68.00,37.94,0.00,0.00,
"CA001104473","1975-09-19",73.94,42.08,0.00,0.00,
"CA001104473","1975-09-20",75.02,42.98,0.00,0.00,
"CA001104473","1975-09-21",75.92,44.06,0.00,0.00,
"CA001104473","1975-09-22",78.08,44.06,0.00,0.00,
"CA001104473","1975-09-23",69.08,50.00,0.00,0.00,
"CA001104473","1975-09-24",66.92,51.08,0.00,0.00,
"CA001104473","1975-09-25",66.02,53.06,0.00,0.00,
"CA001104473","1975-09-26",66.92,41.00,0.00,0.00,
"CA001104473","1975-09-27",71.06,44.06,5.00,0.00,
"CA001104473","1975-09-28",66.02,53.06,0.00,0.00,
"CA001104473","1975-09-29",66.92,42.98,0.00,0.00,
"CA001104473","1975-09-30",69.08,42.08,0.00,0.00,
"CA001104473","1975-10-01",75.02,42.08,0.00,0.00,
"CA001104473","1975-10-02",68.00,44.06,36.00,0.00,
"CA001104473","1975-10-03",62.96,53.96,74.00,0.00,
"CA001104473","1975-10-04",60.98,50.00,135.00,0.00,
"CA001104473","1975-10-05",62.06,48.92,36.00,0.00,
"CA001104473","1975-10-06",60.98,42.08,0.00,0.00,
"CA001104473","1975-10-07",55.94,39.02,20.00,0.00,
"CA001104473","1975-10-08",62.96,42.98,64.00,0.00,
"CA001104473","1975-10-09",53.06,50.00,74.00,0.00,
"CA001104473","1975-10-10",64.04,50.00,0.00,0.00,
"CA001104473","1975-10-11",57.92,42.08,0.00,0.00,
"CA001104473","1975-10-12",53.06,44.06,0.00,0.00,
"CA001104473","1975-10-13",60.08,46.94,8.00,0.00,
"CA001104473","1975-10-14",53.96,46.04,122.00,0.00,
"CA001104473","1975-10-15",59.00,44.96,58.00,0.00,
"CA001104473","1975-10-16",57.02,48.92,648.00,0.00,
"CA001104473","1975-10-17",55.94,48.92,107.00,0.00,
"CA001104473","1975-10-18",53.96,42.98,51.00,0.00,
"CA001104473","1975-10-19",59.00,42.08,8.00,0.00,
"CA001104473","1975-10-20",55.94,44.06,13.00,0.00,
"CA001104473","1975-10-21",51.98,42.08,8.00,0.00,
"CA001104473","1975-10-22",48.92,33.98,0.00,0.00,
"CA001104473","1975-10-23",51.08,33.08,0.00,0.00,
"CA001104473","1975-10-24",48.92,37.04,226.00,0.00,
"CA001104473","1975-10-25",53.96,39.92,84.00,0.00,
"CA001104473","1975-10-26",48.92,41.00,155.00,0.00,
"CA001104473","1975-10-27",50.00,41.00,8.00,0.00,
"CA001104473","1975-10-28",55.04,42.08,277.00,0.00,
"CA001104473","1975-10-29",51.98,44.06,206.00,0.00,
"CA001104473","1975-10-30",51.08,44.06,3.00,0.00,
"CA001104473","1975-10-31",51.98,44.06,3.00,0.00,
"CA001104473","1975-11-01",55.04,37.94,8.00,0.00,
"CA001104473","1975-11-02",51.98,39.02,5.00,0.00,
"CA001104473","1975-11-03",57.92,42.98,51.00,0.00,
"CA001104473","1975-11-04",62.06,53.96,8.00,0.00,
"CA001104473","1975-11-05",57.02,42.98,48.00,0.00,
"CA001104473","1975-11-06",48.02,37.04,246.00,0.00,
"CA001104473","1975-11-07",51.08,42.98,119.00,0.00,
"CA001104473","1975-11-08",48.92,42.08,0.00,0.00,
"CA001104473","1975-11-09",46.04,33.08,0.00,0.00,
"CA001104473","1975-11-10",46.94,33.98,10.00,0.00,
"CA001104473","1975-11-11",48.92,33.98,3.00,0.00,
"CA001104473","1975-11-12",53.96,35.96,33.00,0.00,
"CA001104473","1975-11-13",53.96,46.94,211.00,0.00,
"CA001104473","1975-11-14",55.04,46.94,112.00,0.00,
"CA001104473","1975-11-15",48.92,41.00,43.00,0.00,
"CA001104473","1975-11-16",46.04,39.02,38.00,0.00,
"CA001104473","1975-11-17",42.08,35.96,3.00,0.00,
"CA001104473","1975-11-18",42.98,26.96,0.00,0.00,
"CA001104473","1975-11-19",42.08,30.02,0.00,0.00,
"CA001104473","1975-11-20",44.96,30.92,0.00,0.00,
"CA001104473","1975-11-21",46.94,32.00,0.00,0.00,
"CA001104473","1975-11-22",48.02,39.02,254.00,0.00,
"CA001104473","1975-11-23",53.96,42.08,142.00,0.00,
"CA001104473","1975-11-24",48.02,44.96,0.00,0.00,
"CA001104473","1975-11-25",46.04,41.00,64.00,0.00,
"CA001104473","1975-11-26",46.04,41.00,0.00,0.00,
"CA001104473","1975-11-27",46.04,39.02,0.00,0.00,
"CA001104473","1975-11-28",37.94,24.08,0.00,0.00,
"CA001104473","1975-11-29",35.06,24.08,,,
"CA001104473","1975-11-30",35.96,28.04,,,
"CA001104473","1975-12-01",46.04,23.00,277.00,0.00,
"CA001104473","1975-12-02",53.06,35.06,94.00,0.00,
"CA001104473","1975-12-03",51.08,44.96,231.00,0.00,
"CA001104473","1975-12-04",44.06,35.06,0.00,0.00,
"CA001104473","1975-12-05",42.98,30.92,0.00,0.00,
"CA001104473","1975-12-06",37.94,26.96,0.00,0.00,
"CA001104473","1975-12-07",46.94,30.92,137.00,0.00,
"CA001104473","1975-12-08",48.92,35.96,3.00,0.00,
"CA001104473","1975-12-09",44.06,42.98,0.00,0.00,
"CA001104473","1975-12-10",42.08,35.96,0.00,0.00,
"CA001104473","1975-12-11",37.04,28.04,0.00,0.00,
"CA001104473","1975-12-12",35.06,24.08,38.00,13.00,
"CA001104473","1975-12-13",37.04,26.96,28.00,0.00,
"CA001104473","1975-12-14",41.00,17.06,36.00,0.00,
"CA001104473","1975-12-15",39.92,28.04,0.00,0.00,
"CA001104473","1975-12-16",37.04,21.92,0.00,0.00,
"CA001104473","1975-12-17",37.94,19.94,0.00,0.00,
"CA001104473","1975-12-18",37.94,23.00,0.00,0.00,
"CA001104473","1975-12-19",30.92,28.94,0.00,0.00,
"CA001104473","1975-12-20",37.94,24.08,0.00,0.00,
"CA001104473","1975-12-21",42.98,24.08,5.00,0.00,
"CA001104473","1975-12-22",44.96,26.06,66.00,0.00,
"CA001104473","1975-12-23",50.00,39.02,185.00,0.00,
"CA001104473","1975-12-24",50.00,39.02,28.00,0.00,
"CA001104473","1975-12-25",51.98,41.00,368.00,0.00,
"CA001104473","1975-12-26",53.96,42.98,18.00,0.00,
"CA001104473","1975-12-27",48.02,37.04,46.00,0.00,
"CA001104473","1975-12-28",51.08,41.00,58.00,0.00,
"CA001104473","1975-12-29",51.98,42.08,99.00,0.00,
"CA001104473","1975-12-30",44.06,42.08,0.00,0.00,
"CA001104473","1975-12-31",46.04,28.94,0.00,0.00,
"CA001104473","1976-01-01",39.92,28.94,0.00,0.00,
"CA001104473","1976-01-02",37.04,30.02,56.00,0.00,
"CA001104473","1976-01-03",39.02,30.92,287.00,0.00,
"CA001104473","1976-01-04",46.94,35.96,122.00,0.00,
"CA001104473","1976-01-05",42.98,39.92,23.00,0.00,
"CA001104473","1976-01-06",44.96,35.96,28.00,0.00,
"CA001104473","1976-01-07",42.98,37.04,122.00,0.00,
"CA001104473","1976-01-08",46.94,37.94,20.00,0.00,
"CA001104473","1976-01-09",46.04,37.04,66.00,0.00,
"CA001104473","1976-01-10",46.94,37.94,112.00,0.00,
"CA001104473","1976-01-11",44.96,39.02,112.00,0.00,
"CA001104473","1976-01-12",42.08,32.00,3.00,0.00,
"CA001104473","1976-01-13",44.06,35.06,122.00,0.00,
"CA001104473","1976-01-14",48.92,35.96,170.00,0.00,
"CA001104473","1976-01-15",46.94,42.08,203.00,0.00,
"CA001104473","1976-01-16",48.92,42.08,3.00,0.00,
"CA001104473","1976-01-17",50.00,44.06,33.00,0.00,
"CA001104473","1976-01-18",48.02,39.02,0.00,0.00,
"CA001104473","1976-01-19",39.02,28.94,0.00,0.00,
"CA001104473","1976-01-20",39.92,32.00,0.00,0.00,
"CA001104473","1976-01-21",44.06,28.94,114.00,0.00,
"CA001104473","1976-01-22",46.04,39.92,23.00,0.00,
"CA001104473","1976-01-23",44.96,35.06,0.00,0.00,
"CA001104473","1976-01-24",42.08,30.02,0.00,0.00,
"CA001104473","1976-01-25",44.06,33.08,0.00,0.00,
"CA001104473","1976-01-26",53.06,37.04,236.00,0.00,
"CA001104473","1976-01-27",51.98,39.02,25.00,0.00,
"CA001104473","1976-01-28",53.96,42.98,8.00,0.00,
"CA001104473","1976-01-29",46.94,44.06,10.00,0.00,
"CA001104473","1976-01-30",48.02,44.06,3.00,0.00,
"CA001104473","1976-01-31",46.04,33.98,0.00,0.00,
"CA001104473","1976-02-01",48.02,30.02,3.00,0.00,
"CA001104473","1976-02-02",39.02,30.92,0.00,0.00,
"CA001104473","1976-02-03",55.04,35.06,0.00,0.00,
"CA001104473","1976-02-04",44.96,30.92,0.00,0.00,
"CA001104473","1976-02-05",42.08,24.08,0.00,0.00,
"CA001104473","1976-02-06",44.06,23.00,0.00,0.00,
"CA001104473","1976-02-07",44.96,26.06,20.00,0.00,
"CA001104473","1976-02-08",50.00,33.08,3.00,0.00,
"CA001104473","1976-02-09",46.94,28.94,20.00,0.00,
"CA001104473","1976-02-10",46.04,33.98,23.00,0.00,
"CA001104473","1976-02-11",44.06,42.98,300.00,0.00,
"CA001104473","1976-02-12",46.94,39.02,51.00,0.00,
"CA001104473","1976-02-13",51.98,42.08,46.00,0.00,
"CA001104473","1976-02-14",48.02,44.06,15.00,0.00,
"CA001104473","1976-02-15",48.92,39.92,76.00,0.00,
"CA001104473","1976-02-16",53.06,39.02,71.00,0.00,
"CA001104473","1976-02-17",50.00,41.00,15.00,0.00,
"CA001104473","1976-02-18",46.94,39.92,10.00,0.00,
"CA001104473","1976-02-19",42.98,35.06,15.00,0.00,
"CA001104473","1976-02-20",46.04,35.06,0.00,0.00,
"CA001104473","1976-02-21",51.08,33.98,0.00,0.00,
"CA001104473","1976-02-22",51.98,37.04,23.00,0.00,
"CA001104473","1976-02-23",51.98,41.00,86.00,0.00,
"CA001104473","1976-02-24",44.96,37.04,28.00,0.00,
"CA001104473","1976-02-25",44.06,33.98,84.00,0.00,
"CA001104473","1976-02-26",46.94,33.08,41.00,0.00,
"CA001104473","1976-02-27",42.08,33.98,91.00,,
"CA001104473","1976-02-28",39.02,30.92,76.00,,
"CA001104473","1976-02-29",39.02,30.02,97.00,97.00,
"CA001104473","1976-03-01",41.00,26.96,20.00,0.00,
"CA001104473","1976-03-02",42.08,24.98,0.00,0.00,
"CA001104473","1976-03-03",35.96,32.00,0.00,0.00,
"CA001104473","1976-03-04",39.02,19.94,0.00,0.00,
"CA001104473","1976-03-05",42.98,24.08,0.00,0.00,
"CA001104473","1976-03-06",44.96,28.94,0.00,0.00,
"CA001104473","1976-03-07",46.94,33.08,0.00,0.00,
"CA001104473","1976-03-08",42.98,32.00,0.00,0.00,
"CA001104473","1976-03-09",46.04,37.94,13.00,0.00,
"CA001104473","1976-03-10",50.00,39.02,10.00,0.00,
"CA001104473","1976-03-11",48.02,30.92,0.00,0.00,
"CA001104473","1976-03-12",46.94,33.98,0.00,0.00,
"CA001104473","1976-03-13",46.94,35.96,0.00,0.00,
"CA001104473","1976-03-14",48.92,28.94,0.00,0.00,
"CA001104473","1976-03-15",53.96,30.02,5.00,0.00,
"CA001104473","1976-03-16",51.08,35.06,28.00,0.00,
"CA001104473","1976-03-17",53.96,42.08,36.00,0.00,
"CA001104473","1976-03-18",51.08,44.06,3.00,0.00,
"CA001104473","1976-03-19",51.98,37.04,69.00,0.00,
"CA001104473","1976-03-20",51.08,35.96,36.00,0.00,
"CA001104473","1976-03-21",48.02,39.92,53.00,0.00,
"CA001104473","1976-03-22",48.02,39.92,28.00,0.00,
"CA001104473","1976-03-23",48.02,37.04,193.00,0.00,
"CA001104473","1976-03-24",51.08,39.02,25.00,0.00,
"CA001104473","1976-03-25",48.02,39.92,28.00,0.00,
"CA001104473","1976-03-26",46.04,37.04,8.00,0.00,
"CA001104473","1976-03-27",46.94,39.02,84.00,0.00,
"CA001104473","1976-03-28",51.08,39.92,0.00,0.00,
"CA001104473","1976-03-29",44.96,37.04,30.00,0.00,
"CA001104473","1976-03-30",51.98,39.92,81.00,0.00,
"CA001104473","1976-03-31",48.92,39.02,0.00,0.00,
"CA001104473","1976-04-01",53.96,30.02,0.00,0.00,
"CA001104473","1976-04-02",55.94,32.00,0.00,0.00,
"CA001104473","1976-04-03",60.08,35.96,0.00,0.00,
"CA001104473","1976-04-04",59.00,39.02,0.00,0.00,
"CA001104473","1976-04-05",60.08,35.06,97.00,0.00,
"CA001104473","1976-04-06",60.08,44.96,0.00,0.00,
"CA001104473","1976-04-07",57.92,37.04,30.00,0.00,
"CA001104473","1976-04-08",50.00,46.94,46.00,0.00,
"CA001104473","1976-04-09",62.06,46.94,5.00,0.00,
"CA001104473","1976-04-10",60.08,48.02,61.00,0.00,
"CA001104473","1976-04-11",50.00,46.94,51.00,0.00,
"CA001104473","1976-04-12",53.96,37.04,0.00,0.00,
"CA001104473","1976-04-13",57.02,37.94,3.00,0.00,
"CA001104473","1976-04-14",44.96,42.08,216.00,0.00,
"CA001104473","1976-04-15",51.08,37.94,0.00,0.00,
"CA001104473","1976-04-16",53.06,35.06,5.00,0.00,
"CA001104473","1976-04-17",51.08,39.92,10.00,0.00,
"CA001104473","1976-04-18",51.98,37.94,3.00,0.00,
"CA001104473","1976-04-19",55.94,41.00,180.00,0.00,
"CA001104473","1976-04-20",53.06,42.98,0.00,0.00,
"CA001104473","1976-04-21",55.04,39.02,0.00,0.00,
"CA001104473","1976-04-22",59.00,37.04,0.00,0.00,
"CA001104473","1976-04-23",53.96,44.06,33.00,0.00,
"CA001104473","1976-04-24",55.04,44.96,0.00,0.00,
"CA001104473","1976-04-25",55.04,37.04,0.00,0.00,
"CA001104473","1976-04-26",60.08,35.06,0.00,0.00,
"CA001104473","1976-04-27",75.02,39.92,0.00,0.00,
"CA001104473","1976-04-28",75.92,39.92,0.00,0.00,
"CA001104473","1976-04-29",78.08,42.08,0.00,0.00,
"CA001104473","1976-04-30",80.96,46.94,0.00,0.00,
"CA001104473","1976-05-01",80.96,46.94,99.00,0.00,
"CA001104473","1976-05-02",73.04,48.92,0.00,0.00,
"CA001104473","1976-05-03",60.98,48.92,0.00,0.00,
"CA001104473","1976-05-04",57.92,46.94,43.00,0.00,
"CA001104473","1976-05-05",60.08,44.96,3.00,0.00,
"CA001104473","1976-05-06",62.96,42.08,0.00,0.00,
"CA001104473","1976-05-07",68.00,42.98,0.00,0.00,
"CA001104473","1976-05-08",69.08,53.06,0.00,0.00,
"CA001104473","1976-05-09",77.00,44.96,5.00,0.00,
"CA001104473","1976-05-10",55.94,53.96,107.00,0.00,
"CA001104473","1976-05-11",60.08,46.04,3.00,0.00,
"CA001104473","1976-05-12",60.98,50.00,0.00,0.00,
"CA001104473","1976-05-13",57.02,51.08,3.00,0.00,
"CA001104473","1976-05-14",62.06,42.08,0.00,0.00,
"CA001104473","1976-05-15",69.98,42.08,0.00,0.00,
"CA001104473","1976-05-16",71.96,48.02,0.00,0.00,
"CA001104473","1976-05-17",60.98,44.96,0.00,0.00,
"CA001104473","1976-05-18",60.98,39.02,0.00,0.00,
"CA001104473","1976-05-19",64.04,39.02,0.00,0.00,
"CA001104473","1976-05-20",62.06,42.98,0.00,0.00,
"CA001104473","1976-05-21",69.08,39.92,0.00,0.00,
"CA001104473","1976-05-22",59.00,46.04,8.00,0.00,
"CA001104473","1976-05-23",66.02,46.94,0.00,0.00,
"CA001104473","1976-05-24",57.02,50.00,51.00,0.00,
"CA001104473","1976-05-25",60.08,42.08,140.00,0.00,
"CA001104473","1976-05-26",60.08,46.94,81.00,0.00,
"CA001104473","1976-05-27",60.98,48.02,0.00,0.00,
"CA001104473","1976-05-28",57.92,39.92,0.00,0.00,
"CA001104473","1976-05-29",53.96,44.96,64.00,0.00,
"CA001104473","1976-05-30",57.02,44.06,0.00,0.00,
"CA001104473","1976-05-31",57.02,42.98,0.00,0.00,
"CA001104473","1976-06-01",60.98,42.08,3.00,0.00,
"CA001104473","1976-06-02",60.08,41.00,10.00,0.00,
"CA001104473","1976-06-03",62.06,37.94,0.00,0.00,
"CA001104473","1976-06-04",64.94,42.98,0.00,0.00,
"CA001104473","1976-06-05",68.00,42.98,0.00,0.00,
"CA001104473","1976-06-06",66.02,46.94,0.00,0.00,
"CA001104473","1976-06-07",71.06,44.96,0.00,0.00,
"CA001104473","1976-06-08",66.92,53.06,0.00,0.00,
"CA001104473","1976-06-09",62.06,51.08,38.00,0.00,
"CA001104473","1976-06-10",68.00,51.08,3.00,0.00,
"CA001104473","1976-06-11",59.00,50.00,41.00,0.00,
"CA001104473","1976-06-12",60.98,46.94,3.00,0.00,
"CA001104473","1976-06-13",64.04,44.96,0.00,0.00,
"CA001104473","1976-06-14",68.00,46.04,127.00,0.00,
"CA001104473","1976-06-15",57.92,53.06,203.00,0.00,
"CA001104473","1976-06-16",68.00,53.06,0.00,0.00,
"CA001104473","1976-06-17",78.08,53.96,0.00,0.00,
"CA001104473","1976-06-18",78.08,50.00,0.00,0.00,
"CA001104473","1976-06-19",69.98,51.98,0.00,0.00,
"CA001104473","1976-06-20",69.08,48.02,0.00,0.00,
"CA001104473","1976-06-21",69.98,48.92,0.00,0.00,
"CA001104473","1976-06-22",68.00,50.00,0.00,0.00,
"CA001104473","1976-06-23",66.02,53.06,10.00,0.00,
"CA001104473","1976-06-24",62.06,51.98,0.00,0.00,
"CA001104473","1976-06-25",62.96,50.00,0.00,0.00,
"CA001104473","1976-06-26",66.92,51.98,13.00,0.00,
"CA001104473","1976-06-27",73.94,44.96,0.00,0.00,
"CA001104473","1976-06-28",75.02,53.06,0.00,0.00,
"CA001104473","1976-06-29",62.06,57.02,25.00,0.00,
"CA001104473","1976-06-30",66.92,53.96,0.00,0.00,
"CA001104473","1976-07-01",66.02,55.04,5.00,0.00,
"CA001104473","1976-07-02",71.06,51.98,0.00,0.00,
"CA001104473","1976-07-03",69.08,53.96,66.00,0.00,
"CA001104473","1976-07-04",71.96,55.94,0.00,0.00,
"CA001104473","1976-07-05",75.92,57.02,0.00,0.00,
"CA001104473","1976-07-06",73.04,60.98,15.00,0.00,
"CA001104473","1976-07-07",73.04,60.08,71.00,0.00,
"CA001104473","1976-07-08",71.96,57.92,20.00,0.00,
"CA001104473","1976-07-09",69.08,55.04,0.00,0.00,
"CA001104473","1976-07-10",73.04,53.06,0.00,0.00,
"CA001104473","1976-07-11",73.94,57.02,0.00,0.00,
"CA001104473","1976-07-12",71.06,55.04,0.00,0.00,
"CA001104473","1976-07-13",71.06,57.92,0.00,0.00,
"CA001104473","1976-07-14",75.02,48.02,0.00,0.00,
"CA001104473","1976-07-15",78.98,51.98,0.00,0.00,
"CA001104473","1976-07-16",80.06,57.02,0.00,0.00,
"CA001104473","1976-07-17",77.00,53.96,0.00,0.00,
"CA001104473","1976-07-18",75.92,50.00,0.00,0.00,
"CA001104473","1976-07-19",77.00,51.08,25.00,0.00,
"CA001104473","1976-07-20",69.98,59.00,3.00,0.00,
"CA001104473","1976-07-21",64.94,55.04,0.00,0.00,
"CA001104473","1976-07-22",66.02,55.94,3.00,0.00,
"CA001104473","1976-07-23",80.06,57.92,0.00,0.00,
"CA001104473","1976-07-24",75.92,60.98,0.00,0.00,
"CA001104473","1976-07-25",80.96,50.00,0.00,0.00,
"CA001104473","1976-07-26",69.98,53.06,0.00,0.00,
"CA001104473","1976-07-27",71.96,48.02,0.00,0.00,
"CA001104473","1976-07-28",75.02,46.94,0.00,0.00,
"CA001104473","1976-07-29",71.06,50.00,3.00,0.00,
"CA001104473","1976-07-30",78.08,57.02,0.00,0.00,
"CA001104473","1976-07-31",77.00,60.08,0.00,0.00,
"CA001104473","1976-08-01",71.06,53.06,0.00,0.00,
"CA001104473","1976-08-02",75.92,53.96,0.00,0.00,
"CA001104473","1976-08-03",66.92,60.08,3.00,0.00,
"CA001104473","1976-08-04",69.98,53.96,3.00,0.00,
"CA001104473","1976-08-05",66.92,57.92,0.00,0.00,
"CA001104473","1976-08-06",73.04,55.04,0.00,0.00,
"CA001104473","1976-08-07",,,33.00,0.00,
"CA001104473","1976-08-08",,,0.00,0.00,
"CA001104473","1976-08-09",71.06,57.02,0.00,0.00,
"CA001104473","1976-08-10",77.00,55.94,0.00,0.00,
"CA001104473","1976-08-11",73.94,55.04,0.00,0.00,
"CA001104473","1976-08-12",71.06,55.04,46.00,0.00,
"CA001104473","1976-08-13",64.04,55.04,41.00,0.00,
"CA001104473","1976-08-14",71.96,55.94,0.00,0.00,
"CA001104473","1976-08-15",71.06,53.96,86.00,0.00,
"CA001104473","1976-08-16",64.04,55.04,8.00,0.00,
"CA001104473","1976-08-17",62.96,55.04,0.00,0.00,
"CA001104473","1976-08-18",68.00,48.02,13.00,0.00,
"CA001104473","1976-08-19",57.92,53.96,211.00,0.00,
"CA001104473","1976-08-20",69.98,53.96,3.00,0.00,
"CA001104473","1976-08-21",,51.08,25.00,0.00,
"CA001104473","1976-08-22",,51.98,0.00,0.00,
"CA001104473","1976-08-23",64.04,53.06,10.00,0.00,
"CA001104473","1976-08-24",69.98,55.94,13.00,0.00,
"CA001104473","1976-08-25",69.98,55.94,10.00,0.00,
"CA001104473","1976-08-26",64.94,51.98,41.00,0.00,
"CA001104473","1976-08-27",,53.96,79.00,0.00,
"CA001104473","1976-08-28",,51.08,0.00,0.00,
"CA001104473","1976-08-29",75.02,51.98,3.00,0.00,
"CA001104473","1976-08-30",73.94,51.98,0.00,0.00,
"CA001104473","1976-08-31",75.02,48.02,0.00,0.00,
"CA001104473","1976-09-01",68.00,51.98,0.00,0.00,
"CA001104473","1976-09-02",69.98,53.96,0.00,0.00,
"CA001104473","1976-09-03",71.96,60.08,13.00,0.00,
"CA001104473","1976-09-04",60.08,59.00,307.00,0.00,
"CA001104473","1976-09-05",60.98,59.00,5.00,0.00,
"CA001104473","1976-09-06",66.02,48.02,0.00,0.00,
"CA001104473","1976-09-07",66.02,48.02,0.00,0.00,
"CA001104473","1976-09-08",69.98,42.08,0.00,0.00,
"CA001104473","1976-09-09",71.96,42.98,0.00,0.00,